| time (UTC) | temp F | wind direction | speed knots | gust knots | rain 1hr in | rain 24hr in | rain mn in | humidity % | barometer mb |
| 20260505194155 | 81 | 160 | 8.7 | 13.9 | 0.00 | 0.00 | 0.00 | 73 | 1008.3 |
| 20260505193634 | 81 | 175 | 1.7 | 12.2 | 0.00 | 0.00 | 0.00 | 73 | 1008.3 |
| 20260505193145 | 81 | 165 | 6.1 | 12.2 | 0.00 | 0.00 | 0.00 | 73 | 1008.4 |
| 20260505192628 | 81 | 247 | 6.1 | 11.3 | 0.00 | 0.00 | 0.00 | 72 | 1008.4 |
| 20260505192141 | 81 | 113 | 5.2 | 11.3 | 0.00 | 0.00 | 0.00 | 74 | 1008.5 |
| 20260505191712 | 81 | 144 | 4.3 | 9.6 | 0.00 | 0.00 | 0.00 | 73 | 1008.5 |
| 20260505191201 | 80 | 171 | 3.5 | 11.3 | 0.00 | 0.00 | 0.00 | 76 | 1008.7 |
| 20260505190713 | 80 | 213 | 5.2 | 11.3 | 0.00 | 0.00 | 0.00 | 74 | 1008.7 |
| 20260505190150 | 80 | 195 | 6.1 | 11.3 | 0.00 | 0.00 | 0.00 | 75 | 1008.7 |
| 20260505185636 | 80 | 233 | 0.9 | 12.2 | 0.00 | 0.00 | 0.00 | 78 | 1008.8 |
| 20260505185138 | 79 | 183 | 5.2 | 12.2 | 0.00 | 0.00 | 0.00 | 75 | 1009.0 |
| 20260505184644 | 79 | 214 | 4.3 | 12.2 | 0.00 | 0.00 | 0.00 | 76 | 1009.0 |
| 20260505184135 | 79 | 219 | 5.2 | 8.7 | 0.00 | 0.00 | 0.00 | 77 | 1009.0 |
| 20260505183637 | 79 | 254 | 2.6 | 11.3 | 0.00 | 0.00 | 0.00 | 77 | 1009.1 |
| 20260505183216 | 79 | 193 | 1.7 | 8.7 | 0.00 | 0.00 | 0.00 | 78 | 1009.1 |
| 20260505182657 | 78 | 225 | 5.2 | 7.8 | 0.00 | 0.00 | 0.00 | 79 | 1009.1 |
| 20260505182147 | 78 | 209 | 3.5 | 6.1 | 0.00 | 0.00 | 0.00 | 79 | 1009.2 |
| 20260505181658 | 78 | 210 | 0.9 | 7.8 | 0.00 | 0.00 | 0.00 | 79 | 1009.2 |
| 20260505181139 | 78 | 219 | 4.3 | 8.7 | 0.00 | 0.00 | 0.00 | 79 | 1009.2 |
| 20260505180650 | 78 | 164 | 1.7 | 7.8 | 0.00 | 0.00 | 0.00 | 79 | 1009.4 |
| 20260505180131 | 78 | 180 | 2.6 | 8.7 | 0.00 | 0.00 | 0.00 | 79 | 1009.4 |
| 20260505175640 | 78 | 210 | 2.6 | 9.6 | 0.00 | 0.00 | 0.00 | 79 | 1009.5 |
| 20260505175212 | 78 | 229 | 3.5 | 10.4 | 0.00 | 0.00 | 0.00 | 78 | 1009.5 |
| 20260505174635 | 77 | 204 | 4.3 | 12.2 | 0.00 | 0.00 | 0.00 | 80 | 1009.5 |
| 20260505174146 | 77 | 189 | 7.8 | 12.2 | 0.00 | 0.00 | 0.00 | 80 | 1009.6 |
| 20260505173654 | 77 | 229 | 4.3 | 10.4 | 0.00 | 0.00 | 0.00 | 81 | 1009.6 |
| 20260505173136 | 76 | 206 | 5.2 | 11.3 | 0.00 | 0.00 | 0.00 | 82 | 1009.7 |
| 20260505172648 | 76 | 184 | 6.1 | 11.3 | 0.00 | 0.00 | 0.00 | 82 | 1009.8 |
| 20260505172128 | 76 | 188 | 6.1 | 11.3 | 0.00 | 0.00 | 0.00 | 82 | 1009.6 |
| 20260505171637 | 76 | 198 | 4.3 | 9.6 | 0.00 | 0.00 | 0.00 | 83 | 1009.7 |
| 20260505171148 | 76 | 208 | 4.3 | 9.6 | 0.00 | 0.00 | 0.00 | 84 | 1009.7 |
| 20260505170659 | 76 | 213 | 3.5 | 13.0 | 0.00 | 0.00 | 0.00 | 83 | 1009.7 |
| 20260505170139 | 76 | 183 | 5.2 | 13.9 | 0.00 | 0.00 | 0.00 | 83 | 1009.8 |
| 20260505165647 | 76 | 161 | 7.0 | 13.9 | 0.00 | 0.00 | 0.00 | 83 | 1009.7 |
| 20260505165157 | 75 | 217 | 5.2 | 11.3 | 0.00 | 0.00 | 0.00 | 84 | 1009.6 |
| 20260505164639 | 75 | 222 | 4.3 | 11.3 | 0.00 | 0.00 | 0.00 | 86 | 1009.6 |
| 20260505164207 | 74 | 196 | 6.1 | 11.3 | 0.00 | 0.00 | 0.00 | 87 | 1009.6 |
| 20260505163639 | 74 | 244 | 6.1 | 11.3 | 0.00 | 0.00 | 0.00 | 87 | 1009.7 |
| 20260505163148 | 74 | 231 | 4.3 | 11.3 | 0.00 | 0.00 | 0.00 | 88 | 1009.8 |
| 20260505162630 | 73 | 240 | 2.6 | 12.2 | 0.00 | 0.00 | 0.00 | 88 | 1009.8 |
| 20260505162140 | 73 | 214 | 4.3 | 12.2 | 0.00 | 0.00 | 0.00 | 88 | 1009.8 |
| 20260505161651 | 73 | 221 | 7.0 | 10.4 | 0.00 | 0.00 | 0.00 | 89 | 1009.8 |
| 20260505161130 | 73 | 236 | 6.1 | 11.3 | 0.00 | 0.00 | 0.00 | 89 | 1009.7 |
| 20260505160641 | 73 | 231 | 6.1 | 13.0 | 0.00 | 0.00 | 0.00 | 90 | 1009.7 |
| 20260505160212 | 72 | 232 | 6.1 | 13.0 | 0.00 | 0.00 | 0.00 | 90 | 1009.6 |
| 20260505153159 | 71 | 198 | 4.3 | 8.7 | 0.00 | 0.00 | 0.00 | 93 | 1009.8 |
| 20260505152642 | 71 | 226 | 2.6 | 8.7 | 0.00 | 0.00 | 0.00 | 93 | 1009.8 |
| 20260505152151 | 71 | 182 | 3.5 | 8.7 | 0.00 | 0.00 | 0.00 | 93 | 1009.7 |
| 20260505151633 | 71 | 216 | 4.3 | 9.6 | 0.00 | 0.00 | 0.00 | 93 | 1009.7 |
| 20260505151141 | 71 | 225 | 1.7 | 9.6 | 0.00 | 0.00 | 0.00 | 93 | 1009.6 |
| 20260505150653 | 70 | 204 | 4.3 | 10.4 | 0.00 | 0.00 | 0.00 | 93 | 1009.7 |
| 20260505150151 | 70 | 229 | 3.5 | 7.8 | 0.00 | 0.00 | 0.00 | 93 | 1009.7 |
| 20260505140640 | 69 | 227 | 5.2 | 12.2 | 0.00 | 0.00 | 0.00 | 93 | 1009.6 |
| 20260505140149 | 69 | 218 | 7.8 | 12.2 | 0.00 | 0.00 | 0.00 | 93 | 1009.6 |
| 20260505130138 | 69 | 199 | 5.2 | 11.3 | 0.00 | 0.00 | 0.00 | 92 | 1009.1 |
| 20260505124638 | 69 | 218 | 6.1 | 12.2 | 0.00 | 0.00 | 0.00 | 92 | 1009.0 |
| 20260505124150 | 69 | 205 | 6.1 | 12.2 | 0.00 | 0.00 | 0.00 | 92 | 1008.9 |
| 20260505123653 | 69 | 179 | 6.1 | 11.3 | 0.00 | 0.00 | 0.00 | 92 | 1008.9 |
| 20260505123143 | 69 | 183 | 7.0 | 10.4 | 0.00 | 0.00 | 0.00 | 92 | 1008.8 |
| 20260505122654 | 69 | 186 | 5.2 | 9.6 | 0.00 | 0.00 | 0.00 | 92 | 1008.8 |
| 20260505122137 | 69 | 223 | 4.3 | 8.7 | 0.00 | 0.00 | 0.00 | 92 | 1008.6 |
| 20260505121647 | 69 | 195 | 3.5 | 8.7 | 0.00 | 0.00 | 0.00 | 92 | 1008.5 |
| 20260505121131 | 69 | 211 | 5.2 | 8.7 | 0.00 | 0.00 | 0.00 | 92 | 1008.4 |
| 20260505120643 | 69 | 161 | 6.1 | 9.6 | 0.00 | 0.00 | 0.00 | 92 | 1008.4 |
| 20260505120146 | 69 | 188 | 5.2 | 7.8 | 0.00 | 0.00 | 0.00 | 92 | 1008.4 |
| 20260505115638 | 69 | 161 | 4.3 | 9.6 | 0.00 | 0.00 | 0.00 | 92 | 1008.4 |
| 20260505115140 | 69 | 177 | 3.5 | 8.7 | 0.00 | 0.00 | 0.00 | 92 | 1008.3 |
| 20260505114631 | 69 | 207 | 3.5 | 9.6 | 0.00 | 0.00 | 0.00 | 92 | 1008.3 |
| 20260505114141 | 69 | 183 | 4.3 | 10.4 | 0.00 | 0.00 | 0.00 | 92 | 1008.3 |
| 20260505113642 | 69 | 207 | 4.3 | 13.9 | 0.00 | 0.00 | 0.00 | 92 | 1008.3 |
| 20260505113212 | 69 | 210 | 6.1 | 13.9 | 0.00 | 0.00 | 0.00 | 92 | 1008.3 |
| 20260505112656 | 69 | 211 | 5.2 | 11.3 | 0.00 | 0.00 | 0.00 | 92 | 1008.3 |
| 20260505112206 | 69 | 176 | 6.1 | 12.2 | 0.00 | 0.00 | 0.00 | 92 | 1008.2 |
| 20260505111627 | 69 | 213 | 7.0 | 12.2 | 0.00 | 0.00 | 0.00 | 92 | 1008.2 |
| 20260505111139 | 69 | 198 | 5.2 | 11.3 | 0.00 | 0.00 | 0.00 | 92 | 1008.3 |
| 20260505110650 | 69 | 197 | 6.1 | 11.3 | 0.00 | 0.00 | 0.00 | 92 | 1008.3 |
| 20260505110129 | 69 | 215 | 5.2 | 15.6 | 0.00 | 0.00 | 0.00 | 92 | 1008.3 |
| 20260505102201 | 69 | 162 | 5.2 | 10.4 | 0.00 | 0.00 | 0.00 | 92 | 1008.4 |
| 20260505101636 | 69 | 187 | 5.2 | 10.4 | 0.00 | 0.00 | 0.00 | 92 | 1008.4 |
| 20260505101147 | 69 | 170 | 6.1 | 11.3 | 0.00 | 0.00 | 0.00 | 92 | 1008.5 |
| 20260505100628 | 69 | 196 | 4.3 | 12.2 | 0.00 | 0.00 | 0.00 | 92 | 1008.5 |
| 20260505100141 | 69 | 196 | 5.2 | 12.2 | 0.00 | 0.00 | 0.00 | 92 | 1008.5 |
| 20260505095630 | 69 | 196 | 4.3 | 12.2 | 0.00 | 0.00 | 0.00 | 92 | 1008.6 |
| 20260505095205 | 69 | 165 | 6.1 | 11.3 | 0.00 | 0.00 | 0.00 | 92 | 1008.5 |
| 20260505094700 | 69 | 215 | 6.1 | 11.3 | 0.00 | 0.00 | 0.00 | 92 | 1008.5 |
| 20260505094136 | 69 | 188 | 4.3 | 11.3 | 0.00 | 0.00 | 0.00 | 92 | 1008.6 |
| 20260505093648 | 69 | 226 | 4.3 | 13.9 | 0.00 | 0.00 | 0.00 | 92 | 1008.6 |
| 20260505093155 | 69 | 192 | 7.0 | 13.9 | 0.00 | 0.00 | 0.00 | 92 | 1008.6 |
| 20260505092638 | 69 | 189 | 7.0 | 10.4 | 0.00 | 0.00 | 0.00 | 91 | 1008.6 |
| 20260505092152 | 69 | 203 | 4.3 | 13.9 | 0.00 | 0.00 | 0.00 | 91 | 1008.8 |
| 20260505091701 | 69 | 143 | 4.3 | 13.9 | 0.00 | 0.00 | 0.00 | 91 | 1008.7 |
| 20260505091151 | 69 | 148 | 5.2 | 11.3 | 0.00 | 0.00 | 0.00 | 92 | 1008.8 |
| 20260505090634 | 69 | 146 | 3.5 | 11.3 | 0.00 | 0.00 | 0.00 | 91 | 1008.8 |
| 20260505090146 | 69 | 225 | 4.3 | 13.0 | 0.00 | 0.00 | 0.00 | 91 | 1008.8 |
| 20260505085627 | 69 | 189 | 7.8 | 13.9 | 0.00 | 0.00 | 0.00 | 91 | 1008.6 |
| 20260505085140 | 69 | 215 | 7.8 | 13.9 | 0.00 | 0.00 | 0.00 | 91 | 1008.6 |
| 20260505084651 | 69 | 203 | 7.0 | 13.9 | 0.00 | 0.00 | 0.00 | 91 | 1008.8 |
| 20260505084129 | 69 | 216 | 7.0 | 16.5 | 0.00 | 0.00 | 0.00 | 91 | 1008.7 |
| 20260505083701 | 69 | 182 | 7.0 | 16.5 | 0.00 | 0.00 | 0.00 | 91 | 1008.8 |
| 20260505083154 | 69 | 192 | 8.7 | 16.5 | 0.00 | 0.00 | 0.00 | 91 | 1008.9 |
| 20260505082659 | 69 | 193 | 6.1 | 15.6 | 0.00 | 0.00 | 0.00 | 91 | 1009.0 |
| 20260505082208 | 69 | 169 | 7.0 | 13.0 | 0.00 | 0.00 | 0.00 | 90 | 1009.0 |
| 20260505081637 | 69 | 194 | 7.8 | 15.6 | 0.00 | 0.00 | 0.00 | 90 | 1009.1 |
| 20260505081205 | 69 | 186 | 7.8 | 15.6 | 0.00 | 0.00 | 0.00 | 90 | 1009.2 |
| 20260505080625 | 69 | 187 | 8.7 | 13.0 | 0.00 | 0.00 | 0.00 | 90 | 1009.2 |
| 20260505080139 | 69 | 152 | 7.0 | 13.0 | 0.00 | 0.00 | 0.00 | 90 | 1009.1 |
| 20260505075649 | 69 | 205 | 5.2 | 13.0 | 0.00 | 0.00 | 0.00 | 90 | 1009.2 |
| 20260505075127 | 70 | 199 | 6.1 | 12.2 | 0.00 | 0.00 | 0.00 | 90 | 1009.3 |
| 20260505074657 | 70 | 230 | 7.8 | 12.2 | 0.00 | 0.00 | 0.00 | 90 | 1009.3 |
| 20260505074145 | 70 | 136 | 4.3 | 13.0 | 0.00 | 0.00 | 0.00 | 90 | 1009.3 |
| 20260505073656 | 70 | 148 | 4.3 | 13.0 | 0.00 | 0.00 | 0.00 | 90 | 1009.4 |
| 20260505073139 | 70 | 180 | 6.1 | 15.6 | 0.00 | 0.00 | 0.00 | 90 | 1009.6 |
| 20260505072650 | 70 | 237 | 6.1 | 17.4 | 0.00 | 0.00 | 0.00 | 90 | 1009.6 |
| 20260505072146 | 70 | 200 | 7.8 | 17.4 | 0.00 | 0.00 | 0.00 | 89 | 1009.6 |
| 20260505071657 | 70 | 197 | 7.0 | 15.6 | 0.00 | 0.00 | 0.00 | 89 | 1009.8 |
| 20260505071139 | 70 | 135 | 5.2 | 16.5 | 0.00 | 0.00 | 0.00 | 89 | 1010.0 |
| 20260505070651 | 70 | 190 | 7.0 | 16.5 | 0.00 | 0.00 | 0.00 | 89 | 1010.1 |
| 20260505070132 | 70 | 158 | 3.5 | 13.9 | 0.00 | 0.00 | 0.00 | 89 | 1010.2 |
| 20260505065624 | 70 | 190 | 7.0 | 13.9 | 0.00 | 0.00 | 0.00 | 88 | 1010.2 |
| 20260505065133 | 70 | 221 | 7.0 | 12.2 | 0.00 | 0.00 | 0.00 | 88 | 1010.3 |
| 20260505064656 | 70 | 143 | 3.5 | 12.2 | 0.00 | 0.00 | 0.00 | 88 | 1010.3 |
| 20260505064134 | 70 | 202 | 6.1 | 12.2 | 0.00 | 0.00 | 0.00 | 88 | 1010.3 |
| 20260505063642 | 70 | 158 | 7.0 | 13.9 | 0.00 | 0.00 | 0.00 | 88 | 1010.3 |
| 20260505063130 | 70 | 180 | 7.0 | 17.4 | 0.00 | 0.00 | 0.00 | 88 | 1010.4 |
| 20260505062629 | 70 | 153 | 5.2 | 17.4 | 0.00 | 0.00 | 0.00 | 88 | 1010.4 |
| 20260505062145 | 70 | 138 | 3.5 | 18.2 | 0.00 | 0.00 | 0.00 | 88 | 1010.3 |
| 20260505061644 | 70 | 188 | 8.7 | 18.2 | 0.00 | 0.00 | 0.00 | 88 | 1010.2 |
| 20260505061147 | 70 | 200 | 7.8 | 17.4 | 0.00 | 0.00 | 0.00 | 88 | 1010.3 |
| 20260505060633 | 70 | 177 | 5.2 | 15.6 | 0.00 | 0.00 | 0.00 | 87 | 1010.3 |
| 20260505060137 | 70 | 146 | 7.0 | 17.4 | 0.00 | 0.00 | 0.00 | 87 | 1010.5 |
| 20260505055645 | 71 | 139 | 7.0 | 20.9 | 0.00 | 0.00 | 0.00 | 87 | 1010.5 |
| 20260505055133 | 71 | 171 | 9.6 | 20.9 | 0.00 | 0.00 | 0.00 | 87 | 1010.6 |
| 20260505054637 | 71 | 153 | 8.7 | 17.4 | 0.00 | 0.00 | 0.00 | 87 | 1010.6 |
| 20260505054133 | 71 | 111 | 7.8 | 13.9 | 0.00 | 0.00 | 0.00 | 87 | 1010.7 |
| 20260505053640 | 71 | 168 | 7.0 | 15.6 | 0.00 | 0.00 | 0.00 | 87 | 1010.6 |
| 20260505053149 | 71 | 196 | 5.2 | 15.6 | 0.00 | 0.00 | 0.00 | 87 | 1010.6 |
| 20260505052636 | 71 | 202 | 6.1 | 12.2 | 0.00 | 0.00 | 0.00 | 86 | 1010.6 |
| 20260505052144 | 71 | 180 | 5.2 | 13.9 | 0.00 | 0.00 | 0.00 | 86 | 1010.6 |
| 20260505051644 | 71 | 179 | 9.6 | 13.9 | 0.00 | 0.00 | 0.00 | 86 | 1010.6 |
| 20260505051128 | 71 | 169 | 6.1 | 13.0 | 0.00 | 0.00 | 0.00 | 86 | 1010.6 |
| 20260505050636 | 71 | 130 | 5.2 | 16.5 | 0.00 | 0.00 | 0.00 | 86 | 1010.3 |
| 20260505050135 | 71 | 163 | 6.1 | 16.5 | 0.00 | 0.00 | 0.00 | 86 | 1010.3 |
| 20260505041628 | 72 | 167 | 7.0 | 13.9 | 0.00 | 0.00 | 0.00 | 85 | 1010.7 |
| 20260505041128 | 72 | 185 | 6.1 | 9.6 | 0.00 | 0.00 | 0.00 | 84 | 1010.6 |
| 20260505040639 | 72 | 171 | 6.1 | 11.3 | 0.00 | 0.00 | 0.00 | 84 | 1010.6 |
| 20260505040150 | 72 | 137 | 4.3 | 11.3 | 0.00 | 0.00 | 0.00 | 84 | 1010.6 |
| 20260505035632 | 72 | 160 | 6.1 | 11.3 | 0.00 | 0.00 | 0.00 | 83 | 1010.7 |
| 20260505035144 | 72 | 171 | 6.1 | 12.2 | 0.00 | 0.00 | 0.00 | 83 | 1010.5 |
| 20260505034654 | 72 | 185 | 6.1 | 12.2 | 0.00 | 0.00 | 0.00 | 83 | 1010.5 |
| 20260505034136 | 72 | 136 | 7.8 | 12.2 | 0.00 | 0.00 | 0.00 | 82 | 1010.3 |
| 20260505033647 | 72 | 119 | 5.2 | 8.7 | 0.00 | 0.00 | 0.00 | 82 | 1010.4 |
| 20260505033147 | 72 | 153 | 5.2 | 9.6 | 0.00 | 0.00 | 0.00 | 81 | 1010.4 |
| 20260505032658 | 73 | 153 | 6.1 | 12.2 | 0.00 | 0.00 | 0.00 | 81 | 1010.4 |
| 20260505032138 | 73 | 143 | 6.1 | 12.2 | 0.00 | 0.00 | 0.00 | 81 | 1010.4 |
| 20260505031647 | 73 | 152 | 5.2 | 9.6 | 0.00 | 0.00 | 0.00 | 81 | 1010.3 |
| 20260505031129 | 73 | 115 | 4.3 | 8.7 | 0.00 | 0.00 | 0.00 | 80 | 1010.2 |
| 20260505030701 | 73 | 163 | 5.2 | 8.7 | 0.00 | 0.00 | 0.00 | 80 | 1010.3 |
| 20260505030147 | 73 | 156 | 5.2 | 8.7 | 0.00 | 0.00 | 0.00 | 79 | 1010.3 |
| 20260505025628 | 73 | 147 | 5.2 | 8.7 | 0.00 | 0.00 | 0.00 | 78 | 1010.1 |
| 20260505025140 | 73 | 134 | 4.3 | 7.0 | 0.00 | 0.00 | 0.00 | 78 | 1010.3 |
| 20260505024651 | 74 | 173 | 3.5 | 5.2 | 0.00 | 0.00 | 0.00 | 78 | 1010.4 |
| 20260505024127 | 74 | 190 | 2.6 | 5.2 | 0.00 | 0.00 | 0.00 | 78 | 1010.3 |
| 20260505023642 | 74 | 166 | 0.9 | 6.1 | 0.00 | 0.00 | 0.00 | 78 | 1010.2 |
| 20260505023146 | 74 | 192 | 2.6 | 7.0 | 0.00 | 0.00 | 0.00 | 77 | 1010.2 |
| 20260505022658 | 74 | 175 | 2.6 | 7.8 | 0.00 | 0.00 | 0.00 | 77 | 1010.3 |
| 20260505022144 | 74 | 159 | 4.3 | 7.8 | 0.00 | 0.00 | 0.00 | 77 | 1010.3 |
| 20260505021658 | 74 | 174 | 3.5 | 6.1 | 0.00 | 0.00 | 0.00 | 77 | 1010.3 |
| 20260505021133 | 75 | 165 | 4.3 | 8.7 | 0.00 | 0.00 | 0.00 | 76 | 1010.2 |
| 20260505020647 | 75 | 164 | 3.5 | 8.7 | 0.00 | 0.00 | 0.00 | 76 | 1010.0 |
| 20260505020144 | 75 | 152 | 3.5 | 8.7 | 0.00 | 0.00 | 0.00 | 76 | 1010.0 |
| 20260505015635 | 75 | 136 | 4.3 | 8.7 | 0.00 | 0.00 | 0.00 | 75 | 1009.9 |
| 20260505015156 | 75 | 152 | 5.2 | 8.7 | 0.00 | 0.00 | 0.00 | 75 | 1009.9 |
| 20260505014656 | 75 | 152 | 4.3 | 9.6 | 0.00 | 0.00 | 0.00 | 75 | 1009.9 |
| 20260505014132 | 75 | 146 | 4.3 | 9.6 | 0.00 | 0.00 | 0.00 | 74 | 1009.8 |
| 20260505013642 | 76 | 176 | 3.5 | 8.7 | 0.00 | 0.00 | 0.00 | 73 | 1009.8 |
| 20260505013142 | 76 | 136 | 4.3 | 8.7 | 0.00 | 0.00 | 0.00 | 73 | 1009.8 |
| 20260505012633 | 76 | 169 | 3.5 | 7.8 | 0.00 | 0.00 | 0.00 | 72 | 1009.9 |
| 20260505012158 | 76 | 178 | 4.3 | 7.0 | 0.00 | 0.00 | 0.00 | 71 | 1009.9 |
| 20260505011639 | 76 | 155 | 3.5 | 7.8 | 0.00 | 0.00 | 0.00 | 70 | 1009.8 |
| 20260505011144 | 77 | 180 | 3.5 | 8.7 | 0.00 | 0.00 | 0.00 | 69 | 1009.7 |
| 20260505010654 | 77 | 165 | 4.3 | 8.7 | 0.00 | 0.00 | 0.00 | 69 | 1009.7 |
| 20260505010130 | 77 | 185 | 4.3 | 8.7 | 0.00 | 0.00 | 0.00 | 68 | 1009.8 |
| 20260505005641 | 77 | 216 | 5.2 | 11.3 | 0.00 | 0.00 | 0.00 | 68 | 1009.8 |
| 20260505005212 | 78 | 202 | 5.2 | 11.3 | 0.00 | 0.00 | 0.00 | 68 | 1009.8 |
| 20260505004633 | 78 | 174 | 5.2 | 12.2 | 0.00 | 0.00 | 0.00 | 67 | 1009.7 |
| 20260505004156 | 78 | 163 | 8.7 | 12.2 | 0.00 | 0.00 | 0.00 | 67 | 1009.5 |
| 20260505003646 | 78 | 190 | 6.1 | 11.3 | 0.00 | 0.00 | 0.00 | 66 | 1009.6 |
| 20260505003137 | 78 | 183 | 6.1 | 10.4 | 0.00 | 0.00 | 0.00 | 66 | 1009.5 |
| 20260505002628 | 78 | 132 | 6.1 | 12.2 | 0.00 | 0.00 | 0.00 | 66 | 1009.5 |
| 20260505002154 | 79 | 172 | 7.8 | 12.2 | 0.00 | 0.00 | 0.00 | 65 | 1009.6 |
| 20260505001636 | 79 | 150 | 7.0 | 12.2 | 0.00 | 0.00 | 0.00 | 65 | 1009.6 |
| 20260505001140 | 79 | 155 | 4.3 | 13.0 | 0.00 | 0.00 | 0.00 | 65 | 1009.5 |
| 20260505000710 | 79 | 141 | 5.2 | 15.6 | 0.00 | 0.00 | 0.00 | 65 | 1009.5 |
| 20260505000158 | 79 | 163 | 7.8 | 15.6 | 0.00 | 0.00 | 0.00 | 64 | 1009.6 |
| 20260504235640 | 79 | 182 | 7.0 | 18.2 | 0.00 | 0.00 | 0.00 | 63 | 1009.8 |
| 20260504235129 | 79 | 186 | 7.8 | 13.9 | 0.00 | 0.00 | 0.00 | 63 | 1009.9 |
| 20260504234632 | 80 | 169 | 8.7 | 16.5 | 0.00 | 0.00 | 0.00 | 62 | 1009.8 |
| 20260504234141 | 80 | 159 | 10.4 | 16.5 | 0.00 | 0.00 | 0.00 | 62 | 1009.9 |
| 20260504233652 | 80 | 162 | 9.6 | 16.5 | 0.00 | 0.00 | 0.00 | 63 | 1010.0 |
| 20260504233133 | 80 | 168 | 7.8 | 12.2 | 0.00 | 0.00 | 0.00 | 63 | 1010.2 |
| 20260504232644 | 80 | 156 | 7.0 | 16.5 | 0.00 | 0.00 | 0.00 | 62 | 1010.3 |
| 20260504232155 | 80 | 169 | 7.8 | 16.5 | 0.00 | 0.00 | 0.00 | 62 | 1010.2 |
| 20260504231638 | 80 | 200 | 7.0 | 18.2 | 0.00 | 0.00 | 0.00 | 63 | 1010.2 |
| 20260504231147 | 80 | 200 | 7.8 | 18.2 | 0.00 | 0.00 | 0.00 | 62 | 1010.3 |
| 20260504230647 | 79 | 183 | 6.1 | 17.4 | 0.00 | 0.00 | 0.00 | 63 | 1010.4 |
| 20260504230137 | 79 | 173 | 8.7 | 17.4 | 0.00 | 0.00 | 0.00 | 63 | 1010.4 |
| 20260504225649 | 79 | 207 | 6.1 | 13.9 | 0.00 | 0.00 | 0.00 | 63 | 1010.4 |
| 20260504225148 | 79 | 148 | 7.8 | 13.9 | 0.00 | 0.00 | 0.00 | 63 | 1010.5 |
| 20260504224658 | 79 | 205 | 7.8 | 15.6 | 0.00 | 0.00 | 0.00 | 63 | 1010.8 |
| 20260504224208 | 79 | 219 | 9.6 | 15.6 | 0.00 | 0.00 | 0.00 | 62 | 1010.8 |
| 20260504223649 | 79 | 169 | 6.1 | 17.4 | 0.00 | 0.00 | 0.00 | 63 | 1010.7 |
| 20260504223137 | 79 | 182 | 6.1 | 17.4 | 0.00 | 0.00 | 0.00 | 63 | 1010.8 |
| 20260504222648 | 79 | 193 | 5.2 | 12.2 | 0.00 | 0.00 | 0.00 | 63 | 1010.9 |
| 20260504222148 | 79 | 180 | 7.0 | 13.9 | 0.00 | 0.00 | 0.00 | 63 | 1011.0 |
| 20260504221639 | 79 | 214 | 6.1 | 13.9 | 0.00 | 0.00 | 0.00 | 63 | 1010.8 |
| 20260504221142 | 79 | 192 | 5.2 | 15.6 | 0.00 | 0.00 | 0.00 | 63 | 1010.9 |
| 20260504220635 | 79 | 223 | 7.0 | 15.6 | 0.00 | 0.00 | 0.00 | 63 | 1010.9 |
| 20260504220143 | 79 | 184 | 6.1 | 20.0 | 0.00 | 0.00 | 0.00 | 64 | 1010.9 |
| 20260504215641 | 79 | 215 | 12.2 | 20.0 | 0.00 | 0.00 | 0.00 | 63 | 1010.8 |
| 20260504215153 | 79 | 229 | 7.8 | 17.4 | 0.00 | 0.00 | 0.00 | 63 | 1010.8 |
| 20260504214642 | 79 | 183 | 8.7 | 17.4 | 0.00 | 0.00 | 0.00 | 64 | 1010.9 |
| 20260504214154 | 78 | 193 | 7.0 | 16.5 | 0.00 | 0.00 | 0.00 | 64 | 1010.9 |
| 20260504213638 | 79 | 169 | 8.7 | 16.5 | 0.00 | 0.00 | 0.00 | 63 | 1010.9 |
| 20260504213149 | 79 | 184 | 8.7 | 16.5 | 0.00 | 0.00 | 0.00 | 63 | 1010.9 |
| 20260504212631 | 79 | 211 | 6.1 | 13.9 | 0.00 | 0.00 | 0.00 | 64 | 1011.1 |
| 20260504212141 | 79 | 203 | 9.6 | 16.5 | 0.00 | 0.00 | 0.00 | 63 | 1011.2 |
| 20260504211712 | 79 | 195 | 7.0 | 16.5 | 0.00 | 0.00 | 0.00 | 64 | 1011.3 |
| 20260504211132 | 79 | 219 | 7.0 | 13.0 | 0.00 | 0.00 | 0.00 | 65 | 1011.2 |
| 20260504210643 | 78 | 175 | 7.8 | 13.0 | 0.00 | 0.00 | 0.00 | 64 | 1011.5 |
| 20260504210145 | 79 | 199 | 7.0 | 16.5 | 0.00 | 0.00 | 0.00 | 64 | 1011.6 |
| 20260504205656 | 79 | 219 | 7.0 | 13.9 | 0.00 | 0.00 | 0.00 | 64 | 1011.8 |
| 20260504205203 | 79 | 211 | 7.0 | 13.9 | 0.00 | 0.00 | 0.00 | 64 | 1011.9 |
| 20260504204653 | 78 | 213 | 7.8 | 13.9 | 0.00 | 0.00 | 0.00 | 64 | 1011.8 |
| 20260504204141 | 79 | 150 | 8.7 | 13.9 | 0.00 | 0.00 | 0.00 | 64 | 1011.8 |
| 20260504203652 | 79 | 214 | 7.8 | 13.9 | 0.00 | 0.00 | 0.00 | 63 | 1011.9 |
| 20260504203152 | 79 | 149 | 5.2 | 17.4 | 0.00 | 0.00 | 0.00 | 64 | 1012.2 |
| 20260504202658 | 78 | 225 | 8.7 | 17.4 | 0.00 | 0.00 | 0.00 | 64 | 1012.3 |
| 20260504202139 | 78 | 167 | 5.2 | 15.6 | 0.00 | 0.00 | 0.00 | 64 | 1012.4 |
| 20260504201654 | 78 | 158 | 6.1 | 15.6 | 0.00 | 0.00 | 0.00 | 64 | 1012.5 |
| 20260504201205 | 78 | 189 | 7.8 | 13.9 | 0.00 | 0.00 | 0.00 | 63 | 1012.4 |
| 20260504200647 | 78 | 198 | 7.8 | 13.9 | 0.00 | 0.00 | 0.00 | 65 | 1012.5 |
| 20260504200154 | 79 | 163 | 6.1 | 15.6 | 0.00 | 0.00 | 0.00 | 64 | 1012.6 |
| 20260504195645 | 78 | 217 | 8.7 | 17.4 | 0.00 | 0.00 | 0.00 | 63 | 1012.6 |
| 20260504195150 | 78 | 196 | 7.8 | 13.9 | 0.00 | 0.00 | 0.00 | 64 | 1012.8 |
| 20260504194630 | 78 | 202 | 7.8 | 15.6 | 0.00 | 0.00 | 0.00 | 64 | 1012.7 |